Starlink 31720

operational
NORAD ID: 59497 Int'l Des: 2024-071 Owner: SPXS Country: US Constellation: starlink
LEOCIRCULAR

关于 Starlink 31720

正在加载描述...

实时位置

正在加载3D地球...

即将过境

高度历史

Altitude vs Time

uPlot chart will show altitude changes over time

两行轨道根数

1 59497U 24071P 25259.26114514 .00000781 00000-0 37897-4 0 9999
2 59497 42.9988 245.2865 0000778 267.2885 92.7878 15.27584937 81526
Epoch: Sep 16, 2025 • Age: 8 hours

当前状态

高度 483.6 km
速度 7.63 km/s
星下点 27.41°N, 173.21°E
发射日期 Apr 13, 2024
运行时间 1.4 years
类型 internet

技术详情

分类 Payload
质量 730.00 kg
干质量 700.00 kg
总质量 730.00 kg
长度 0.30 m
直径 4.10 m
跨度 29.00 m
形状 Box + pan
制造商 SPXS
平台类型 Starlink V2M
阶段状态 In Orbit
所有者/国家 SPXS/US

大型星座

Loading constellations...